Regional Weather Roundup
Issued by NWS

Home | Current Version | Previous Version | Graphics & Text | Print | Product List | Glossary On
Versions: 1 2 3 4 5 6 7 8 9 10 11 12 13 14 15 16 17 18 19 20 21 22 23 24 25 26 27 28 29 30 31 32 33 34 35 36 37 38 39 40 41 42 43 44 45 46 47 48 49 50
000
ASUS45 KBOU 271310
RWRCO

WEATHER ROUNDUP FOR COLORADO
NATIONAL WEATHER SERVICE DENVER/BOULDER CO
700 AM MDT MON JUL 27 2015

NOTE: "FAIR" INDICATES FEW OR NO CLOUDS BELOW 12000 FEET WITH NO
SIGNIFICANT WEATHER AND/OR OBSTRUCTIONS TO VISIBILITY.

COZ001>005-013-030-031-271400-
...NORTHWEST COLORADO...

CITY           SKY/WX    TMP DP  RH WIND       PRES   REMARKS
CRAIG          PTCLDY    55  43  63 CALM      30.07R
HAYDEN         CLEAR     55  39  54 SE10      30.10R
MEEKER         PTCLDY    56  44  64 E6        30.08R
MOUNT WERNER   NOT AVBL
STEAMBOAT SPGS CLEAR     50  43  77 CALM      30.13R
WALDEN         SUNNY     50  37  62 E3        30.21S
$$

COZ006>008-011-271400-
...WEST CENTRAL VALLEYS...

CITY           SKY/WX    TMP DP  RH WIND       PRES   REMARKS
GRAND JUNCTION PTCLDY    71  48  43 E15       29.95R
MONTROSE       PTCLDY    64  50  60 SE5       30.08R
EAGLE          PTCLDY    55  45  67 CALM      30.16R
RIFLE          PTCLDY    60  46  59 S3        30.04R
DELTA          PTCLDY    67  50  54 NE3       30.03R
NUCLA          PTCLDY    64  46  52 E7        30.11R
$$

COZ017>023-064>068-271400-
...SOUTHWEST COLORADO...

CITY           SKY/WX    TMP DP  RH WIND       PRES   REMARKS
DURANGO        MOCLDY    60  49  66 N3        30.20R
CORTEZ         CLEAR     61  50  67 N3        30.11R
PAGOSA SPRINGS MOCLDY    54  51  87 CALM      30.28R
TELLURIDE      MOCLDY    60  45  58 CALM      30.34R
WOLF CREEK PAS NOT AVBL
$$

COZ009-010-012-014-032>034-037-058>063-271400-
...CENTRAL COLORADO...

CITY           SKY/WX    TMP DP  RH WIND       PRES   REMARKS
ASPEN          MOCLDY    62  45  53 SE8       30.20R
BUENA VISTA    PTCLDY    51  46  84 W5        30.27R
COPPER MTN     MOSUNNY   54  39  58 S14       30.52R
BERTHOUD PASS  FAIR      45  34  65 NW20G29   30.55R
COTTONWOOD PAS PTCLDY    54  46  76 N3        30.38R
GUNNISON       PTCLDY    50  45  81 NE7       30.30R
KREMMLING      MOSUNNY   50  41  71 CALM      30.22R
LEADVILLE      PTCLDY    43  41  93 NE6       30.38R
MONARCH PASS   CLOUDY    45  41  87 SW16      30.63R
SALIDA         PTCLDY    62  49  63 CALM      30.30R
SUNLIGHT       PTCLDY    54  45  71 CALM      30.43R
WILKERSON PASS PTSUNNY   46  41  81 SW14G22   30.47R
$$

COZ069>075-271400-
...SAN LUIS VALLEY/SANGRE DE CRISTO MOUNTAINS...

CITY           SKY/WX    TMP DP  RH WIND       PRES   REMARKS
ALAMOSA        CLOUDY    55  50  83 E3        30.26R
LA VETA PASS   CLOUDY    52  41  66 MISG      30.40R
SAGUACHE       CLOUDY    54  52  94 N5        30.30R
$$

COZ035-036-038>040-271400-
...NORTHERN COLORADO FRONT RANGE...

CITY           SKY/WX    TMP DP  RH WIND       PRES   REMARKS
DENVER INTL AP PTSUNNY   65  57  75 SW8       29.99R
DMNS CITY PARK   N/A     67  58  72 E8        29.98S
AURORA         MOSUNNY   63  59  86 NW3       30.01S
FRONT RANGE AP PTSUNNY   63  57  82 SW6       30.00S
ERIE MUNI ARPT SUNNY     61  57  86 CALM      29.97S
BOULDER MUN AP SUNNY     63  55  77 CALM      29.98R
CENTENNIAL     MOSUNNY   68  54  60 S10       30.02S
BROOMFIELD     PTSUNNY   63  57  82 CALM      30.01R
FORT COLLINS   SUNNY     63  55  77 N5        29.98R
LONGMONT       SUNNY     63  58  82 CALM      29.99R
$$

COZ041-046-047-076>085-087-088-271400-
...PIKES PEAK/PALMER DIVIDE AND SOUTHERN FOOTHILLS...

CITY           SKY/WX    TMP DP  RH WIND       PRES   REMARKS
COLO. SPRINGS  PTSUNNY   60  57  89 N7        30.09S
A. F. ACADEMY  PTSUNNY   58  56  91 NE2       30.11R
ELLICOTT       PTSUNNY  N/A N/A N/A CALM      30.07S
FALCON         PTSUNNY   58  57  95 CALM      30.15R
FORT CARSON    PTSUNNY   59  59  99 N7        30.06R
LIMON          PTSUNNY   62  61  96 SE7       30.02S
MONUMENT HILL  PTSUNNY   63  50  63 SW5       30.13R
TRINIDAD       PTSUNNY   67  51  56 W9        30.07R
$$

COZ042>045-048>051-090-091-271400-
...NORTHEAST COLORADO...

CITY           SKY/WX    TMP DP  RH WIND       PRES   REMARKS
GREELEY ARPT   MOSUNNY   59  55  88 CALM      29.96S
AKRON          NOT AVBL
BURLINGTON     PTSUNNY   67  64  90 S18G29    29.96R
WRAY           MOSUNNY   67  65  93 CALM      29.92S
STERLING       NOT AVBL
HOLYOKE        MOSUNNY   64  63  94 CALM      29.91S
FORT MORGAN    MOSUNNY   63  60  91 S3        29.96R
$$

COZ086-089-092>099-271400-
...SOUTHEAST COLORADO...

CITY           SKY/WX    TMP DP  RH WIND       PRES   REMARKS
PUEBLO         PTSUNNY   70  58  65 W6        29.99R
LA JUNTA       CLOUDY    77  53  43 SW7       29.96R
LAMAR          CLOUDY    73  62  68 S13       29.93F
SPRINGFIELD      N/A     69  63  81 S8        30.02S
$$



USA.gov is the U.S. government's official web portal to all federal, state and local government web resources and services.